[[{"header":{"parameterUnit":"m.s-1","parameterCategory":1,"la1":30.2991,"la2":30.254,"lo1":-89.0895,"lo2":-89.0444,"dy":0.0017,"dx":0.0017,"nx":28,"ny":28,"refTime":"2025-04-01T21:00:00:Z","depth":0,"parameterNumber":2,"parameterNumberName":"U-component_of_WINDS"},"data":[0,0,0,0,0,0,0,0,0,0,0,0,0,0,0,0,0,0,0,0,0,0,0,0,0,0,0,0,0,0,0,0,0,0,0,0,0,0,0,0,0,0,0,0,0,0,0,0,0,0,0,0,0,0,0,0,0,0,-4.5584,-4.5585,0,-4.5728,-4.573,-4.5732,-4.5776,-4.5775,-4.5774,-4.5773,-4.592,-4.5925,-4.5929,0,0,0,0,0,0,0,0,0,0,0,0,0,-4.5345,-4.5349,-4.5584,-4.5585,-4.5587,-4.5728,-4.573,-4.5732,-4.5776,-4.5775,-4.5774,-4.5773,-4.5919,-4.5924,-4.593,0,0,0,0,0,0,0,0,0,0,0,0,0,-4.5465,-4.5351,-4.5583,-4.5626,-4.5631,-4.5728,-4.573,-4.5733,-4.5776,-4.5775,-4.5774,-4.5773,-4.5917,-4.5924,-4.5931,-4.5995,0,0,-4.5952,-4.5955,0,0,0,0,0,0,0,0,-4.5458,-4.5474,-4.5618,-4.5623,-4.5629,-4.5733,-4.57,-4.5821,-4.5776,-4.5721,-4.5773,-4.5772,-4.5859,-4.587,-4.59,-4.6002,-4.6008,-4.5952,-4.5956,-4.5959,-4.5961,0,0,0,0,0,0,0,-4.545,-4.5468,-4.5641,-4.562,-4.5627,-4.5638,-4.5654,-4.5723,-4.5794,-4.5726,-4.5729,-4.5746,-4.5862,-4.5893,-4.5904,-4.601,-4.5952,-4.5958,-4.5962,-4.5965,-4.6173,-4.6174,0,0,0,0,0,0,-4.5434,-4.5461,-4.5636,-4.5645,-4.5539,-4.5643,-4.5661,-4.5701,-4.5793,-4.5807,-4.5747,-4.5747,-4.5882,-4.5896,-4.5909,-4.599,-4.5959,-4.5966,-4.597,-4.6172,-4.6173,-4.6175,0,0,0,0,0,0,-4.5429,-4.545,-4.563,-4.5554,-4.5578,-4.5648,-4.5693,-4.5704,-4.5736,-4.5809,-4.5822,-4.5766,-4.5882,-4.5899,-4.5973,-4.5996,-4.5969,-4.5975,-4.617,-4.6172,-4.6174,-4.6153,0,0,0,0,0,0,-4.5422,-4.5447,-4.5472,-4.5554,-4.5582,-4.5692,-4.5694,-4.5708,-4.5747,-4.575,-4.5831,-4.5843,-4.5882,-4.5963,-4.598,-4.6005,-4.598,-4.6168,-4.6171,-4.6173,-4.6152,-4.6154,-4.6156,0,0,0,0,0,-4.5413,-4.546,-4.5473,-4.5494,-4.5614,-4.5693,-4.5709,-4.5753,-4.5749,-4.5775,-4.5823,-4.584,-4.5991,-4.597,-4.599,-4.6017,-4.6167,-4.617,-4.6173,-4.6151,-4.6153,-4.6156,0,0,0,0,0,0,-4.5378,-4.5471,-4.5487,-4.5562,-4.5619,-4.57,-4.5734,-4.5755,-4.5814,-4.5814,-4.5867,-4.5885,-4.5955,-4.5994,-4.5969,-4.6085,-4.608,-4.6087,-4.6056,-4.6059,-4.6061,-4.6049,-4.5986,0,0,0,0,0,-4.5379,-4.5435,-4.5514,-4.5573,-4.5601,-4.5662,-4.5699,-4.5728,-4.579,-4.5814,-4.5867,-4.5926,-4.5987,-4.6026,-4.6086,-4.6159,-4.6177,-4.6187,-4.6189,-4.6191,-4.6195,-4.6237,-4.6243,-4.6185,-4.6185,-4.6185,0,0,-4.5381,-4.5439,-4.5472,-4.5567,-4.5615,-4.5672,-4.5682,-4.5742,-4.5785,-4.5823,-4.5896,-4.5937,-4.6007,-4.6081,-4.6116,-4.6115,-4.6216,-4.6195,-4.6195,-4.6199,-4.6241,-4.6246,-4.6251,-4.6187,-4.6187,-4.6186,0,0,-4.5414,-4.5464,-4.5518,-4.5567,-4.564,-4.5681,-4.5694,-4.5773,-4.5802,-4.5876,-4.5906,-4.5959,-4.6062,-4.611,-4.6148,-4.6203,-4.6221,-4.6221,-4.623,-4.6271,-4.6275,-4.6279,-4.6298,-4.6304,-4.6226,-4.6226,-4.6226,0,-4.5407,-4.5495,-4.5543,-4.5602,-4.5643,-4.5682,-4.5737,-4.5782,-4.587,-4.5898,-4.5896,-4.6028,-4.6078,-4.6163,-4.6177,-4.6207,-4.6223,-4.6211,-4.6271,-4.6275,-4.628,-4.6298,-4.6305,-4.6226,-4.6226,-4.6226,-4.6226,0,-4.5482,-4.5543,-4.5578,-4.5663,-4.5709,-4.5765,-4.5823,-4.5863,-4.589,-4.5931,-4.6007,-4.6068,-4.6141,-4.6165,-4.6191,-4.6255,-4.6252,-4.626,-4.6256,-4.6284,-4.6302,-4.6309,-4.6225,-4.6225,-4.6225,-4.6225,0,0,-4.5494,-4.5608,-4.5619,-4.5659,-4.5744,-4.5791,-4.585,-4.5923,-4.5956,-4.6017,-4.6067,-4.6156,-4.6164,-4.6207,-4.624,-4.6275,-4.6314,-4.6279,-4.6282,-4.6282,-4.6388,-4.638,-4.6387,-4.6328,-4.633,-4.6331,-4.6381,0,-4.5537,-4.5643,-4.569,-4.5775,-4.5832,-4.587,-4.5922,-4.598,-4.6021,-4.6075,-4.612,-4.6182,-4.6189,-4.6215,-4.6252,-4.6301,-4.6335,-4.6299,-4.6375,-4.6377,-4.6354,-4.6396,-4.6388,-4.6432,-4.6389,-4.639,-4.6391,0,-4.56,-4.5661,-4.5752,-4.5831,-4.5857,-4.5902,-4.5973,-4.6024,-4.6091,-4.6119,-4.6168,-4.6199,-4.6263,-4.6257,-4.6346,-4.632,-4.6354,-4.6383,-4.6386,-4.6393,-4.6384,-4.6403,-4.6448,-4.6454,-4.6403,-4.6402,-4.6401,0,-4.5598,-4.5704,-4.5772,-4.5805,-4.5899,-4.593,-4.5971,-4.6036,-4.6077,-4.614,-4.6167,-4.6236,-4.6273,-4.6326,-4.6375,-4.6366,-4.6459,-4.6457,-4.6483,-4.6482,-4.6499,-4.6497,-4.6548,-4.6524,-4.6524,-4.6524,-4.6524,0,-4.5639,-4.5693,-4.5772,-4.5814,-4.5876,-4.593,-4.599,-4.6033,-4.6092,-4.6143,-4.6182,-4.6229,-4.6292,-4.6348,-4.6387,-4.6454,-4.6471,-4.6495,-4.6504,-4.649,-4.6487,-4.6512,-4.6509,-4.6526,-4.6526,-4.6525,-4.6525,0,-4.5646,-4.5701,-4.5778,-4.5862,-4.5884,-4.5926,-4.5997,-4.604,-4.6084,-4.6148,-4.6166,-4.6235,-4.6303,-4.6358,-4.6446,-4.6473,-4.6543,-4.6555,-4.652,-4.6525,-4.6547,-4.6544,-4.6615,-4.6627,-4.6596,-4.6596,-4.6597,0,-4.5668,-4.571,-4.5799,-4.5836,-4.5876,-4.5935,-4.5978,-4.6033,-4.6076,-4.6156,-4.6189,-4.6259,-4.6318,-4.6425,-4.6482,-4.6551,-4.6563,-4.6584,-4.6574,-4.6558,-4.6562,-4.6558,-4.6563,-4.6584,-4.6584,-4.6584,-4.6584,0,-4.57,-4.5726,-4.5785,-4.5855,-4.5904,-4.5962,-4.602,-4.6049,-4.6115,-4.6161,-4.6231,-4.6277,-4.6368,-4.6437,-4.6512,-4.6554,-4.658,-4.6587,-4.6597,-4.6581,-4.6559,-4.657,-4.6521,-4.6584,-4.6584,-4.6584,-4.6584,-4.6584,-4.5714,-4.5754,-4.5822,-4.5888,-4.5938,-4.5992,-4.6036,-4.6086,-4.6145,-4.6223,-4.6253,-4.6324,-4.6392,-4.6495,-4.6538,-4.6595,-4.6598,-4.6611,-4.6615,-4.6617,-4.6614,-4.6552,-4.6609,-4.6609,-4.6609,-4.6609,-4.6609,0,-4.5748,-4.5794,-4.5854,-4.5935,-4.5986,-4.6008,-4.6074,-4.6115,-4.6178,-4.6239,-4.6296,-4.6377,-4.6445,-4.6509,-4.6581,-4.6614,-4.6628,-4.6631,-4.6628,-4.6637,-4.6608,-4.6592,-4.6618,-4.6618,-4.6618,-4.6618,-4.6618,-4.6618,-4.5771,-4.5839,-4.5873,-4.5967,-4.6013,-4.6083,-4.6119,-4.617,-4.6219,-4.6307,-4.6364,-4.6405,-4.6468,-4.6545,-4.6608,-4.6626,-4.665,-4.6649,-4.6669,-4.6641,-4.6639,-4.6637,-4.6622,-4.6654,-4.6654,-4.6693,-4.6693,-4.6694]},{"header":{"parameterUnit":"m.s-1","parameterCategory":1,"la1":30.2991,"la2":30.254,"lo1":-89.0895,"lo2":-89.0444,"dy":0.0017,"dx":0.0017,"nx":28,"ny":28,"refTime":"2025-04-01T21:00:00:Z","depth":0,"parameterNumber":3,"parameterNumberName":"V-component_of_WINDS"},"data":[0,0,0,0,0,0,0,0,0,0,0,0,0,0,0,0,0,0,0,0,0,0,0,0,0,0,0,0,0,0,0,0,0,0,0,0,0,0,0,0,0,0,0,0,0,0,0,0,0,0,0,0,0,0,0,0,0,0,4.8296,4.8296,0,4.8359,4.836,4.8361,4.8376,4.8376,4.8376,4.8375,4.8437,4.8439,4.8441,0,0,0,0,0,0,0,0,0,0,0,0,0,4.8187,4.8189,4.8295,4.8296,4.8297,4.8359,4.836,4.8361,4.8377,4.8376,4.8376,4.8375,4.8436,4.8439,4.8441,0,0,0,0,0,0,0,0,0,0,0,0,0,4.8241,4.819,4.8295,4.8313,4.8315,4.8359,4.836,4.8361,4.8377,4.8376,4.8375,4.8375,4.8435,4.8438,4.8441,4.8472,0,0,4.8451,4.8452,0,0,0,0,0,0,0,0,4.8238,4.8245,4.8309,4.8311,4.8314,4.8359,4.8344,4.8398,4.8377,4.8353,4.8375,4.8375,4.8411,4.8416,4.843,4.8475,4.8478,4.8451,4.8453,4.8454,4.8455,0,0,0,0,0,0,0,4.8234,4.8242,4.8321,4.831,4.8313,4.8317,4.8324,4.8355,4.8385,4.8355,4.8356,4.8364,4.8413,4.8427,4.8431,4.8479,4.8451,4.8454,4.8455,4.8457,4.8557,4.8557,0,0,0,0,0,0,4.8227,4.8239,4.8319,4.8323,4.8274,4.8319,4.8327,4.8345,4.8384,4.839,4.8364,4.8364,4.8422,4.8428,4.8433,4.8474,4.8454,4.8457,4.8459,4.8556,4.8557,4.8558,0,0,0,0,0,0,4.8225,4.8234,4.8316,4.8281,4.8292,4.8322,4.8342,4.8347,4.8361,4.8392,4.8397,4.8373,4.8421,4.8429,4.8464,4.8477,4.8458,4.8461,4.8555,4.8556,4.8557,4.8555,0,0,0,0,0,0,4.8222,4.8233,4.8245,4.8281,4.8294,4.8345,4.8343,4.8349,4.8367,4.8367,4.8401,4.8406,4.8422,4.8459,4.8467,4.848,4.8463,4.8554,4.8555,4.8557,4.8554,4.8556,4.8558,0,0,0,0,0,4.8218,4.824,4.8246,4.8255,4.8309,4.8346,4.8353,4.8371,4.8367,4.838,4.84,4.8405,4.8474,4.8462,4.8471,4.8486,4.8553,4.8555,4.8557,4.8553,4.8556,4.8558,0,0,0,0,0,0,4.8202,4.8245,4.8251,4.8286,4.8313,4.8348,4.8364,4.8373,4.8399,4.8399,4.8419,4.8427,4.8461,4.8477,4.8463,4.852,4.8514,4.8517,4.8508,4.8511,4.8512,4.8508,4.8466,0,0,0,0,0,4.8204,4.8231,4.8266,4.8293,4.8307,4.8334,4.835,4.8362,4.839,4.8401,4.8423,4.8449,4.8477,4.8495,4.8522,4.8557,4.8566,4.8572,4.8574,4.8575,4.8578,4.8601,4.8605,4.8564,4.8564,4.8564,0,0,4.8205,4.8232,4.8247,4.8291,4.8313,4.8341,4.8342,4.8371,4.8392,4.8404,4.8439,4.8457,4.8488,4.8524,4.854,4.8538,4.8592,4.8578,4.8578,4.8581,4.8603,4.8607,4.8611,4.8565,4.8565,4.8565,0,0,4.8222,4.8245,4.8272,4.8295,4.8329,4.8347,4.8354,4.839,4.8403,4.8439,4.845,4.8475,4.8522,4.8544,4.8562,4.8593,4.8599,4.8601,4.861,4.8633,4.8636,4.8639,4.8652,4.8656,4.8604,4.8604,4.8604,0,4.822,4.8263,4.8284,4.8314,4.8334,4.8349,4.8377,4.8398,4.8439,4.8452,4.8449,4.8512,4.8533,4.8576,4.8584,4.8597,4.8606,4.8597,4.8634,4.8637,4.864,4.8653,4.8658,4.8604,4.8604,4.8604,4.8604,0,4.8259,4.8289,4.8306,4.8348,4.837,4.8398,4.8425,4.8445,4.8456,4.8475,4.8513,4.854,4.8575,4.8586,4.8596,4.8631,4.8629,4.863,4.8624,4.8644,4.8656,4.8661,4.8604,4.8604,4.8604,4.8604,0,0,4.8265,4.8322,4.8328,4.8349,4.839,4.8414,4.8444,4.848,4.8497,4.8526,4.8552,4.8594,4.8597,4.8616,4.863,4.8649,4.8675,4.8648,4.8649,4.8653,4.8719,4.8719,4.8724,4.868,4.8681,4.8682,4.8717,0,4.8289,4.8344,4.8367,4.8412,4.8441,4.8459,4.8486,4.8514,4.8534,4.8561,4.8582,4.8613,4.8612,4.8625,4.8645,4.8668,4.8689,4.8665,4.8706,4.8707,4.8698,4.873,4.8729,4.876,4.8722,4.8722,4.8723,0,4.8322,4.8355,4.8404,4.8445,4.8458,4.8482,4.8519,4.8545,4.8578,4.8591,4.8616,4.8629,4.8663,4.8656,4.8703,4.8687,4.8705,4.8719,4.8721,4.8725,4.8716,4.8736,4.8771,4.8776,4.873,4.873,4.8729,0,4.8325,4.838,4.8417,4.8434,4.8483,4.85,4.8521,4.8554,4.8575,4.8607,4.8622,4.8656,4.8675,4.8702,4.8725,4.8717,4.8771,4.8765,4.8784,4.8783,4.8794,4.8793,4.8833,4.8804,4.8804,4.8804,4.8804,0,4.8349,4.8378,4.842,4.8442,4.8477,4.8503,4.8537,4.8559,4.8589,4.8617,4.8634,4.866,4.8688,4.8718,4.8736,4.8774,4.8782,4.8794,4.8798,4.8793,4.8792,4.8805,4.8804,4.8805,4.8805,4.8805,4.8805,0,4.8356,4.8385,4.8427,4.8471,4.8483,4.8507,4.8545,4.8569,4.8591,4.8626,4.8636,4.867,4.8707,4.8733,4.8778,4.8791,4.8832,4.8836,4.8822,4.8824,4.8842,4.884,4.8892,4.8901,4.8866,4.8866,4.8866,0,4.8369,4.8393,4.8441,4.8463,4.8484,4.8517,4.8541,4.8569,4.8592,4.8635,4.8654,4.8692,4.8724,4.8782,4.881,4.8847,4.8852,4.8868,4.8857,4.8852,4.8854,4.8853,4.8857,4.8869,4.8869,4.887,4.887,0,4.8391,4.8405,4.8439,4.8479,4.8507,4.8539,4.8571,4.8587,4.8621,4.8647,4.8686,4.8711,4.8761,4.8799,4.8839,4.886,4.8871,4.8873,4.888,4.8875,4.8866,4.8873,4.8827,4.8872,4.8872,4.8871,4.8871,4.8871,4.8403,4.8426,4.8465,4.8503,4.8531,4.8562,4.8588,4.8615,4.8648,4.8692,4.8707,4.8748,4.8784,4.8839,4.8862,4.8895,4.8894,4.8902,4.8905,4.8907,4.8908,4.8861,4.8902,4.8902,4.8902,4.8902,4.8902,0,4.8426,4.8454,4.8488,4.8535,4.8566,4.8576,4.8613,4.8638,4.8674,4.8708,4.8741,4.8788,4.8826,4.886,4.89,4.892,4.8926,4.893,4.8928,4.8934,4.8905,4.8897,4.8924,4.8924,4.8924,4.8924,4.8924,4.8924,4.8442,4.8484,4.8504,4.856,4.8587,4.8629,4.865,4.8679,4.8707,4.8759,4.8792,4.8815,4.8849,4.8893,4.8929,4.8938,4.8953,4.8955,4.8965,4.8938,4.8935,4.8933,4.8925,4.8958,4.8958,4.8991,4.8992,4.8992]}]]